Location: Anankanda
(14.7841°N, 3.0348°W)
Time: 06:09:08
(UTC+00:00)

Cosmos 1603 - Pass Details

Date: 17 January 2021
Orbit: 829 x 861 km, 71.0° (Epoch: 07 March)

Event Time Altitude Azimuth Distance (km) Brightness Sun altitude
Rises 19:16:52 0° 339° (NNW) 3,416 6.9 -17.6°
Reaches altitude 10° 19:19:19 10° 337° (NNW) 2,483 6.2 -18.2°
Maximum altitude 19:24:59 68° 255° (WSW) 922 4.1 -19.5°
Drops below altitude 10° 19:30:40 10° 173° (S) 2,489 6.2 -20.8°
Sets 19:33:08 0° 170° (S) 3,425 7.0 -21.4°
